WMT3327 LRCL-LICC

Flight info

Callsign WMT3327
Flight time 2h 20m
Altitude 38000
Route IRLOX DCT ANASA DCT SOSEK DCT KOFER DCT PINUK DCT CRAYE/N0444F370 DCT VURKE DCT DAMIC DCT GEMVI DCT DODEL/N0361F190 Q72 PIMOR
Aircraft A321/M-SDE3FGHIRWY/S

Departure

Time 2026-05-08 16:00
Airport Avram Iancu Cluj International Airport (LRCL)

Arrival

Time 2026-05-08 18:20
Airport Catania-Fontanarossa Airport (LICC)
Time Latitude Longitude Altitude Speed Heading
2026-05-08 15:16 46.78317 23.68796 1043 ft 0 kts 169°
2026-05-08 15:49 46.78328 23.68793 1043 ft 4 kts 173°
2026-05-08 15:49 46.78354 23.68794 1043 ft 4 kts 197°
2026-05-08 15:49 46.78375 23.68812 1043 ft 4 kts 244°
2026-05-08 15:49 46.78378 23.68823 1043 ft 1 kts 259°
2026-05-08 15:53 46.78378 23.68822 1043 ft 1 kts 259°
2026-05-08 15:53 46.78375 23.68798 1043 ft 4 kts 259°
2026-05-08 15:54 46.78369 23.68760 1043 ft 7 kts 254°
2026-05-08 15:54 46.78362 23.68703 1043 ft 4 kts 266°
2026-05-08 15:54 46.78445 23.68657 1043 ft 9 kts 347°
2026-05-08 15:55 46.78502 23.68641 1043 ft 8 kts 345°
2026-05-08 15:55 46.78497 23.68477 1043 ft 7 kts 258°
2026-05-08 15:55 46.78484 23.68384 1043 ft 11 kts 259°
2026-05-08 15:56 46.78482 23.68274 1043 ft 10 kts 311°
2026-05-08 15:56 46.78516 23.68192 1043 ft 12 kts 261°
2026-05-08 15:56 46.78491 23.68063 1043 ft 15 kts 252°
2026-05-08 15:56 46.78454 23.67902 1043 ft 18 kts 252°
2026-05-08 15:57 46.78411 23.67709 1043 ft 21 kts 252°
2026-05-08 15:57 46.78367 23.67504 1043 ft 19 kts 258°
2026-05-08 15:57 46.78350 23.67373 1043 ft 9 kts 260°
2026-05-08 15:57 46.78348 23.67361 1043 ft 3 kts 260°
2026-05-08 15:58 46.78345 23.67310 1043 ft 8 kts 275°
2026-05-08 15:58 46.78384 23.67214 1043 ft 14 kts 315°
2026-05-08 15:58 46.78466 23.67163 1043 ft 5 kts 41°
2026-05-08 15:58 46.78470 23.67186 1043 ft 5 kts 74°
2026-05-08 15:59 46.78486 23.67266 1043 ft 12 kts 72°
2026-05-08 15:59 46.78567 23.67626 1043 ft 75 kts 71°
2026-05-08 15:59 46.78806 23.68677 1044 ft 141 kts 72°
2026-05-08 15:59 46.79134 23.70130 1540 ft 150 kts 71°
2026-05-08 16:00 46.79460 23.71575 2273 ft 151 kts 71°
2026-05-08 16:00 46.79792 23.73045 2956 ft 154 kts 71°
2026-05-08 16:00 46.80142 23.74590 3422 ft 168 kts 70°
2026-05-08 16:00 46.80524 23.76284 3869 ft 183 kts 71°
2026-05-08 16:01 46.80935 23.78121 4315 ft 198 kts 71°
2026-05-08 16:01 46.81378 23.80101 4731 ft 213 kts 72°
2026-05-08 16:01 46.81858 23.82260 5142 ft 233 kts 73°
2026-05-08 16:01 46.82374 23.84594 5660 ft 250 kts 73°
2026-05-08 16:02 46.82926 23.87085 6232 ft 265 kts 74°
2026-05-08 16:02 46.83506 23.89696 6826 ft 274 kts 74°
2026-05-08 16:02 46.84106 23.92363 6988 ft 278 kts 73°
2026-05-08 16:02 46.85005 23.94902 7494 ft 286 kts 56°
2026-05-08 16:03 46.86389 23.97040 8279 ft 294 kts 39°
2026-05-08 16:03 46.88181 23.98534 9033 ft 300 kts 20°
2026-05-08 16:03 46.90225 23.99165 9761 ft 303 kts
2026-05-08 16:03 46.92313 23.98847 10545 ft 302 kts 342°
2026-05-08 16:04 46.94222 23.97635 11348 ft 299 kts 324°
2026-05-08 16:04 46.95726 23.95601 12149 ft 295 kts 303°
2026-05-08 16:04 46.96636 23.92879 12598 ft 305 kts 282°
2026-05-08 16:04 46.96765 23.89746 12985 ft 317 kts 261°
2026-05-08 16:05 46.96036 23.86654 13356 ft 330 kts 239°
2026-05-08 16:05 46.94470 23.84159 13878 ft 340 kts 216°
2026-05-08 16:05 46.92285 23.82765 14528 ft 348 kts 196°
2026-05-08 16:05 46.89918 23.81954 15200 ft 351 kts 195°
2026-05-08 16:06 46.87526 23.81167 15878 ft 354 kts 195°
2026-05-08 16:06 46.85112 23.80382 16552 ft 357 kts 195°
2026-05-08 16:06 46.82651 23.79804 17194 ft 362 kts 186°
2026-05-08 16:06 46.80113 23.80062 17824 ft 370 kts 172°
2026-05-08 16:07 46.77643 23.81246 18429 ft 379 kts 158°
2026-05-08 16:07 46.75375 23.83262 19005 ft 386 kts 149°
2026-05-08 16:07 46.73133 23.85477 19549 ft 390 kts 150°
2026-05-08 16:07 46.70873 23.87706 20100 ft 394 kts 150°
2026-05-08 16:08 46.68595 23.89948 20666 ft 398 kts 150°
2026-05-08 16:08 46.66292 23.92207 21192 ft 401 kts 150°
2026-05-08 16:08 46.63961 23.94491 21722 ft 405 kts 151°
2026-05-08 16:08 46.61529 23.96534 22238 ft 403 kts 160°
2026-05-08 16:09 46.58901 23.97909 22740 ft 400 kts 171°
2026-05-08 16:09 46.57099 23.98435 23070 ft 398 kts 177°
2026-05-08 16:09 46.53410 23.99211 23690 ft 403 kts 177°
2026-05-08 16:09 46.50631 23.99804 24145 ft 406 kts 177°
2026-05-08 16:10 46.47827 24.00412 24596 ft 409 kts 177°
2026-05-08 16:10 46.45005 24.01028 25030 ft 412 kts 177°
2026-05-08 16:10 46.42160 24.01647 25452 ft 415 kts 177°
2026-05-08 16:10 46.39297 24.02267 25849 ft 418 kts 177°
2026-05-08 16:11 46.36407 24.02893 26222 ft 422 kts 177°
2026-05-08 16:11 46.33490 24.03523 26608 ft 425 kts 177°
2026-05-08 16:11 46.30559 24.04154 26977 ft 428 kts 178°
2026-05-08 16:11 46.27606 24.04788 27325 ft 431 kts 178°
2026-05-08 16:12 46.24628 24.05423 27693 ft 434 kts 178°
2026-05-08 16:12 46.21631 24.06063 28036 ft 437 kts 178°
2026-05-08 16:12 46.18612 24.06712 28368 ft 440 kts 178°
2026-05-08 16:12 46.15605 24.07359 28681 ft 444 kts 178°
2026-05-08 16:13 46.12505 24.08022 29007 ft 446 kts 178°
2026-05-08 16:13 46.09422 24.08676 29333 ft 449 kts 178°
2026-05-08 16:13 46.06322 24.09334 29655 ft 452 kts 177°
2026-05-08 16:13 46.03206 24.10000 29964 ft 454 kts 177°
2026-05-08 16:14 46.00066 24.10677 30230 ft 458 kts 177°
2026-05-08 16:14 45.96906 24.11354 30502 ft 460 kts 177°
2026-05-08 16:14 45.93733 24.12030 30821 ft 462 kts 177°
2026-05-08 16:14 45.90539 24.12706 31123 ft 465 kts 177°
2026-05-08 16:15 45.87336 24.13385 31410 ft 467 kts 177°
2026-05-08 16:15 45.84111 24.14071 31742 ft 468 kts 177°
2026-05-08 16:15 45.80898 24.14755 32174 ft 466 kts 178°
2026-05-08 16:15 45.77695 24.15435 32614 ft 464 kts 178°
2026-05-08 16:16 45.74503 24.16104 33032 ft 462 kts 178°
2026-05-08 16:16 45.71325 24.16762 33437 ft 461 kts 179°
2026-05-08 16:16 45.68165 24.16991 33833 ft 450 kts 189°
2026-05-08 16:16 45.65103 24.16406 34219 ft 440 kts 200°
2026-05-08 16:17 45.62227 24.15062 34581 ft 431 kts 209°
2026-05-08 16:17 45.60456 24.13802 34713 ft 428 kts 215°
2026-05-08 16:17 45.57285 24.10450 35008 ft 423 kts 226°
2026-05-08 16:17 45.55086 24.07641 35287 ft 424 kts 225°
2026-05-08 16:18 45.52884 24.04844 35537 ft 425 kts 225°
2026-05-08 16:18 45.50671 24.02048 35737 ft 426 kts 225°
2026-05-08 16:18 45.48447 23.99246 35914 ft 428 kts 225°
2026-05-08 16:18 45.46224 23.96451 36146 ft 427 kts 225°
2026-05-08 16:19 45.43993 23.93650 36433 ft 426 kts 225°
2026-05-08 16:19 45.41770 23.90859 36684 ft 425 kts 225°
2026-05-08 16:19 45.39547 23.88068 36857 ft 426 kts 225°
2026-05-08 16:19 45.37329 23.85288 36982 ft 426 kts 225°
2026-05-08 16:20 45.35112 23.82512 37134 ft 427 kts 225°
2026-05-08 16:20 45.32872 23.79706 37265 ft 428 kts 225°
2026-05-08 16:20 45.30640 23.76910 37395 ft 428 kts 225°
2026-05-08 16:20 45.28407 23.74119 37522 ft 428 kts 225°
2026-05-08 16:21 45.26166 23.71321 37652 ft 429 kts 225°
2026-05-08 16:21 45.23920 23.68524 37781 ft 430 kts 225°
2026-05-08 16:21 45.21670 23.65725 37951 ft 428 kts 224°
2026-05-08 16:21 45.19438 23.62948 38026 ft 427 kts 225°
2026-05-08 16:22 45.14995 23.57430 38030 ft 425 kts 225°
2026-05-08 16:22 45.10551 23.51917 38033 ft 424 kts 224°
2026-05-08 16:23 45.06111 23.46429 38028 ft 424 kts 224°
2026-05-08 16:23 45.01688 23.40986 38033 ft 420 kts 224°
2026-05-08 16:24 44.97279 23.35549 38035 ft 420 kts 225°
2026-05-08 16:24 44.92869 23.30123 38036 ft 421 kts 224°
2026-05-08 16:25 44.88452 23.24709 38040 ft 420 kts 224°
2026-05-08 16:25 44.84042 23.19316 38040 ft 420 kts 224°
2026-05-08 16:26 44.79606 23.13900 38040 ft 421 kts 224°
2026-05-08 16:26 44.75206 23.08541 38040 ft 421 kts 224°
2026-05-08 16:27 44.70781 23.03152 38043 ft 420 kts 224°
2026-05-08 16:27 44.66347 22.97773 38042 ft 421 kts 224°
2026-05-08 16:28 44.62663 22.93316 38041 ft 421 kts 224°
2026-05-08 16:28 44.58222 22.87947 38001 ft 422 kts 225°
2026-05-08 16:29 44.53741 22.82551 38002 ft 422 kts 225°
2026-05-08 16:29 44.49312 22.77232 38002 ft 421 kts 225°
2026-05-08 16:30 44.44869 22.71890 38002 ft 420 kts 225°
2026-05-08 16:30 44.40431 22.66561 38007 ft 421 kts 225°
2026-05-08 16:31 44.35981 22.61243 38012 ft 421 kts 225°
2026-05-08 16:31 44.31763 22.55665 38012 ft 414 kts 236°
2026-05-08 16:32 44.28995 22.48708 38005 ft 410 kts 248°
2026-05-08 16:32 44.26655 22.41452 38008 ft 411 kts 248°
2026-05-08 16:33 44.24291 22.34171 38013 ft 411 kts 248°
2026-05-08 16:33 44.21942 22.26961 38029 ft 406 kts 248°
2026-05-08 16:34 44.19601 22.19786 38028 ft 407 kts 248°
2026-05-08 16:34 44.17251 22.12608 38036 ft 409 kts 248°
2026-05-08 16:35 44.14885 22.05423 38031 ft 407 kts 248°
2026-05-08 16:35 44.12530 21.98258 38026 ft 408 kts 248°
2026-05-08 16:36 44.10175 21.91085 38031 ft 408 kts 248°
2026-05-08 16:36 44.07798 21.83886 38027 ft 410 kts 248°
2026-05-08 16:37 44.05411 21.76694 38034 ft 409 kts 247°
2026-05-08 16:37 44.03024 21.69521 38040 ft 409 kts 248°
2026-05-08 16:38 44.00633 21.62361 38046 ft 408 kts 247°
2026-05-08 16:38 43.98261 21.55274 38057 ft 402 kts 247°
2026-05-08 16:39 43.95904 21.48230 38055 ft 401 kts 247°
2026-05-08 16:39 43.93559 21.41229 38054 ft 399 kts 247°
2026-05-08 16:40 43.91218 21.34298 38050 ft 399 kts 246°
2026-05-08 16:40 43.88858 21.27325 38044 ft 401 kts 246°
2026-05-08 16:41 43.86498 21.20341 38046 ft 400 kts 246°
2026-05-08 16:42 43.82937 21.09882 38045 ft 400 kts 246°
2026-05-08 16:42 43.82137 21.07532 38044 ft 400 kts 246°
2026-05-08 16:43 43.78286 20.96679 38033 ft 405 kts 239°
2026-05-08 16:43 43.74457 20.90907 38029 ft 412 kts 226°
2026-05-08 16:44 43.70275 20.85543 38044 ft 409 kts 226°
2026-05-08 16:44 43.66112 20.80193 38048 ft 409 kts 226°
2026-05-08 16:45 43.61932 20.74825 38031 ft 412 kts 226°
2026-05-08 16:45 43.57737 20.69455 38040 ft 412 kts 226°
2026-05-08 16:46 43.53556 20.64124 38029 ft 413 kts 226°
2026-05-08 16:46 43.49355 20.58774 38034 ft 412 kts 225°
2026-05-08 16:47 43.45142 20.53410 38028 ft 412 kts 226°
2026-05-08 16:47 43.40912 20.48034 38023 ft 415 kts 226°
2026-05-08 16:48 43.36664 20.42657 38032 ft 416 kts 226°
2026-05-08 16:48 43.32406 20.37275 38032 ft 417 kts 225°
2026-05-08 16:49 43.28126 20.31881 38033 ft 418 kts 225°
2026-05-08 16:49 43.23866 20.26517 38053 ft 414 kts 226°
2026-05-08 16:50 43.19614 20.21168 38045 ft 415 kts 225°
2026-05-08 16:50 43.15361 20.15830 38047 ft 415 kts 225°
2026-05-08 16:51 43.11095 20.10490 38047 ft 415 kts 225°
2026-05-08 16:51 43.06828 20.05163 38047 ft 415 kts 225°
2026-05-08 16:52 43.02548 19.99829 38041 ft 417 kts 225°
2026-05-08 16:52 42.98273 19.94517 38047 ft 415 kts 225°
2026-05-08 16:53 42.91875 19.86563 38048 ft 413 kts 225°
2026-05-08 16:53 42.87622 19.81298 37979 ft 411 kts 224°
2026-05-08 16:54 42.84094 19.76940 37981 ft 413 kts 224°
2026-05-08 16:55 42.74624 19.65268 37966 ft 416 kts 224°
2026-05-08 16:55 42.70335 19.60003 37964 ft 417 kts 224°
2026-05-08 16:56 42.66027 19.54719 37992 ft 416 kts 224°
2026-05-08 16:56 42.61734 19.49466 37984 ft 416 kts 224°
2026-05-08 16:57 42.57489 19.44272 37998 ft 412 kts 224°
2026-05-08 16:57 42.53224 19.39069 37955 ft 412 kts 224°
2026-05-08 16:58 42.48977 19.33906 37993 ft 409 kts 224°
2026-05-08 16:58 42.44744 19.28764 37999 ft 407 kts 224°
2026-05-08 16:59 42.40527 19.23655 37995 ft 407 kts 224°
2026-05-08 16:59 42.36313 19.18551 37994 ft 406 kts 224°
2026-05-08 17:00 42.32106 19.13468 37990 ft 407 kts 224°
2026-05-08 17:00 42.27885 19.08384 37991 ft 407 kts 224°
2026-05-08 17:01 42.23651 19.03291 37978 ft 408 kts 224°
2026-05-08 17:01 42.19397 18.98184 37979 ft 410 kts 224°
2026-05-08 17:02 42.15166 18.93103 37998 ft 406 kts 224°
2026-05-08 17:02 42.10942 18.88047 37995 ft 406 kts 224°
2026-05-08 17:03 42.06714 18.83002 37993 ft 406 kts 224°
2026-05-08 17:03 42.03185 18.78794 37993 ft 406 kts 223°
2026-05-08 17:04 41.98282 18.72963 38002 ft 405 kts 223°
2026-05-08 17:04 41.94032 18.67929 38002 ft 405 kts 223°
2026-05-08 17:05 41.89826 18.62929 38002 ft 405 kts 223°
2026-05-08 17:05 41.85643 18.57919 38003 ft 405 kts 224°
2026-05-08 17:06 41.81534 18.52718 38010 ft 404 kts 225°
2026-05-08 17:06 41.77499 18.47467 38015 ft 404 kts 225°
2026-05-08 17:07 41.73437 18.42230 38016 ft 404 kts 225°
2026-05-08 17:07 41.69379 18.37067 38017 ft 404 kts 225°
2026-05-08 17:08 41.65298 18.31894 38017 ft 404 kts 225°
2026-05-08 17:08 41.61243 18.26766 38028 ft 400 kts 225°
2026-05-08 17:09 41.57224 18.21685 38023 ft 400 kts 225°
2026-05-08 17:09 41.53809 18.17387 38020 ft 400 kts 225°
2026-05-08 17:10 41.51625 18.15086 38020 ft 402 kts 214°
2026-05-08 17:10 41.49142 18.13398 38014 ft 407 kts 204°
2026-05-08 17:10 41.43520 18.11939 38006 ft 417 kts 191°
2026-05-08 17:11 41.37724 18.11119 38011 ft 417 kts 191°
2026-05-08 17:11 41.31958 18.10293 38014 ft 417 kts 191°
2026-05-08 17:12 41.26138 18.10042 38012 ft 426 kts 178°
2026-05-08 17:12 41.20285 18.11336 38011 ft 429 kts 176°
2026-05-08 17:13 41.14400 18.12651 38017 ft 429 kts 176°
2026-05-08 17:13 41.08515 18.13954 38004 ft 425 kts 177°
2026-05-08 17:14 41.02696 18.15226 37986 ft 425 kts 177°
2026-05-08 17:14 40.96848 18.16512 37971 ft 425 kts 177°
2026-05-08 17:15 40.91002 18.17801 37970 ft 425 kts 177°
2026-05-08 17:15 40.85167 18.19079 37963 ft 425 kts 177°
2026-05-08 17:16 40.79332 18.20351 37957 ft 425 kts 177°
2026-05-08 17:16 40.73490 18.21623 37957 ft 425 kts 177°
2026-05-08 17:17 40.67656 18.22904 37960 ft 425 kts 177°
2026-05-08 17:17 40.61817 18.24179 37960 ft 425 kts 177°
2026-05-08 17:18 40.55980 18.25455 37965 ft 425 kts 177°
2026-05-08 17:18 40.50153 18.26723 37961 ft 423 kts 178°
2026-05-08 17:19 40.44401 18.26883 37960 ft 408 kts 195°
2026-05-08 17:19 40.38951 18.25068 37956 ft 403 kts 200°
2026-05-08 17:20 40.33538 18.23141 37955 ft 404 kts 200°
2026-05-08 17:20 40.28106 18.21226 37947 ft 404 kts 200°
2026-05-08 17:21 40.22684 18.19311 37955 ft 404 kts 200°
2026-05-08 17:21 40.17256 18.17388 37949 ft 404 kts 200°
2026-05-08 17:22 40.11832 18.15469 37962 ft 404 kts 200°
2026-05-08 17:22 40.06403 18.13554 37957 ft 404 kts 200°
2026-05-08 17:23 40.00972 18.11649 37953 ft 404 kts 200°
2026-05-08 17:23 39.95527 18.09742 37976 ft 407 kts 200°
2026-05-08 17:24 39.90063 18.07827 37979 ft 406 kts 200°
2026-05-08 17:24 39.84607 18.05916 37977 ft 406 kts 200°
2026-05-08 17:25 39.79150 18.04004 37966 ft 406 kts 200°
2026-05-08 17:25 39.73688 18.02091 37978 ft 406 kts 200°
2026-05-08 17:26 39.68227 18.00186 37981 ft 406 kts 200°
2026-05-08 17:26 39.62765 17.98293 37982 ft 406 kts 200°
2026-05-08 17:27 39.57306 17.96395 37983 ft 406 kts 200°
2026-05-08 17:27 39.51849 17.94495 37983 ft 406 kts 200°
2026-05-08 17:28 39.46384 17.92604 37982 ft 406 kts 200°
2026-05-08 17:28 39.40944 17.90728 37999 ft 402 kts 201°
2026-05-08 17:29 39.35534 17.88860 37993 ft 401 kts 201°
2026-05-08 17:29 39.30127 17.86989 37989 ft 401 kts 201°
2026-05-08 17:30 39.24757 17.85147 37986 ft 401 kts 201°
2026-05-08 17:30 39.19325 17.83280 37984 ft 401 kts 201°
2026-05-08 17:31 39.13936 17.81408 37983 ft 400 kts 204°
2026-05-08 17:31 39.09133 17.78175 37965 ft 387 kts 223°
2026-05-08 17:32 39.05036 17.73681 37965 ft 387 kts 224°
2026-05-08 17:32 39.00946 17.69182 37979 ft 387 kts 223°
2026-05-08 17:33 38.96845 17.64713 37980 ft 387 kts 223°
2026-05-08 17:33 38.92749 17.60261 37962 ft 385 kts 225°
2026-05-08 17:34 38.88658 17.55807 37980 ft 385 kts 225°
2026-05-08 17:34 38.84573 17.51350 37980 ft 385 kts 225°
2026-05-08 17:35 38.80489 17.46898 37967 ft 385 kts 225°
2026-05-08 17:35 38.76398 17.42462 37978 ft 386 kts 224°
2026-05-08 17:36 38.72293 17.38034 37981 ft 385 kts 224°
2026-05-08 17:36 38.68190 17.33605 37979 ft 385 kts 225°
2026-05-08 17:37 38.64096 17.29181 37958 ft 386 kts 224°
2026-05-08 17:37 38.60001 17.24760 37979 ft 386 kts 224°
2026-05-08 17:38 38.55894 17.20344 37982 ft 385 kts 224°
2026-05-08 17:38 38.51795 17.15942 38002 ft 385 kts 224°
2026-05-08 17:39 38.47694 17.11545 38002 ft 385 kts 224°
2026-05-08 17:39 38.43593 17.07149 38002 ft 385 kts 224°
2026-05-08 17:40 38.39482 17.02749 38002 ft 385 kts 224°
2026-05-08 17:40 38.35390 16.98379 38003 ft 385 kts 224°
2026-05-08 17:41 38.31280 16.94000 38007 ft 385 kts 224°
2026-05-08 17:41 38.27172 16.89630 38005 ft 385 kts 224°
2026-05-08 17:42 38.23066 16.85263 38001 ft 385 kts 224°
2026-05-08 17:42 38.18953 16.80898 37999 ft 385 kts 224°
2026-05-08 17:43 38.14838 16.76542 38002 ft 385 kts 224°
2026-05-08 17:43 38.10730 16.72194 38005 ft 385 kts 224°
2026-05-08 17:44 38.06609 16.67844 38012 ft 385 kts 224°
2026-05-08 17:44 38.02494 16.63498 38013 ft 384 kts 224°
2026-05-08 17:45 37.98376 16.59152 38006 ft 384 kts 224°
2026-05-08 17:45 37.96313 16.56983 37903 ft 387 kts 224°
2026-05-08 17:45 37.94242 16.54808 37657 ft 387 kts 224°
2026-05-08 17:46 37.92175 16.52638 37405 ft 385 kts 224°
2026-05-08 17:46 37.90109 16.50471 37154 ft 385 kts 224°
2026-05-08 17:46 37.88065 16.48330 36903 ft 382 kts 224°
2026-05-08 17:46 37.86030 16.46201 36485 ft 378 kts 224°
2026-05-08 17:47 37.84005 16.44083 35989 ft 377 kts 223°
2026-05-08 17:47 37.82667 16.42682 35660 ft 375 kts 224°
2026-05-08 17:47 37.80664 16.40588 35231 ft 371 kts 223°
2026-05-08 17:47 37.78685 16.38521 34813 ft 367 kts 223°
2026-05-08 17:48 37.76730 16.36478 34411 ft 362 kts 223°
2026-05-08 17:48 37.74802 16.34462 34003 ft 358 kts 223°
2026-05-08 17:48 37.72894 16.32468 33575 ft 354 kts 221°
2026-05-08 17:48 37.71005 16.30498 33176 ft 350 kts 221°
2026-05-08 17:49 37.69126 16.28541 32781 ft 345 kts 221°
2026-05-08 17:49 37.67295 16.26638 32387 ft 341 kts 221°
2026-05-08 17:49 37.65475 16.24746 31987 ft 337 kts 221°
2026-05-08 17:49 37.63689 16.22864 31606 ft 333 kts 224°
2026-05-08 17:50 37.62138 16.20717 31181 ft 330 kts 232°
2026-05-08 17:50 37.60922 16.18238 30760 ft 330 kts 241°
2026-05-08 17:50 37.60086 16.15561 30345 ft 331 kts 250°
2026-05-08 17:50 37.59635 16.12695 29925 ft 335 kts 258°
2026-05-08 17:51 37.59403 16.09772 29504 ft 334 kts 258°
2026-05-08 17:51 37.59167 16.06861 29094 ft 333 kts 258°
2026-05-08 17:51 37.58927 16.03968 28685 ft 331 kts 258°
2026-05-08 17:51 37.58685 16.01077 28291 ft 329 kts 259°
2026-05-08 17:52 37.58450 15.98247 27897 ft 327 kts 259°
2026-05-08 17:52 37.58211 15.95387 27506 ft 324 kts 260°
2026-05-08 17:52 37.57733 15.89773 26761 ft 318 kts 260°
2026-05-08 17:53 37.57501 15.87024 26380 ft 315 kts 261°
2026-05-08 17:53 37.57438 15.84285 25997 ft 314 kts 268°
2026-05-08 17:53 37.57476 15.81539 25612 ft 311 kts 268°
2026-05-08 17:53 37.57505 15.78829 25233 ft 308 kts 268°
2026-05-08 17:54 37.57529 15.76139 24848 ft 305 kts 268°
2026-05-08 17:54 37.57552 15.73484 24462 ft 302 kts 268°
2026-05-08 17:54 37.57574 15.70849 24080 ft 299 kts 268°
2026-05-08 17:54 37.57594 15.68236 23685 ft 297 kts 268°
2026-05-08 17:55 37.57614 15.65645 23289 ft 294 kts 268°
2026-05-08 17:55 37.57635 15.63071 22886 ft 293 kts 268°
2026-05-08 17:55 37.57655 15.60523 22500 ft 291 kts 268°
2026-05-08 17:55 37.57674 15.57973 22097 ft 289 kts 268°
2026-05-08 17:56 37.57695 15.55441 21697 ft 287 kts 268°
2026-05-08 17:56 37.57715 15.52938 21296 ft 285 kts 268°
2026-05-08 17:56 37.57734 15.50446 20899 ft 284 kts 268°
2026-05-08 17:56 37.57752 15.47946 20498 ft 282 kts 268°
2026-05-08 17:57 37.57770 15.45479 20105 ft 281 kts 268°
2026-05-08 17:57 37.57786 15.43059 19737 ft 279 kts 268°
2026-05-08 17:57 37.57797 15.40618 19348 ft 277 kts 268°
2026-05-08 17:57 37.57782 15.38195 18954 ft 276 kts 267°
2026-05-08 17:58 37.57750 15.35776 18560 ft 274 kts 266°
2026-05-08 17:58 37.57712 15.33376 18168 ft 273 kts 266°
2026-05-08 17:58 37.57673 15.31006 17781 ft 271 kts 266°
2026-05-08 17:58 37.57635 15.28608 17390 ft 270 kts 266°
2026-05-08 17:59 37.57601 15.26274 17009 ft 268 kts 267°
2026-05-08 17:59 37.57567 15.23918 16635 ft 267 kts 266°
2026-05-08 17:59 37.57534 15.21621 16464 ft 258 kts 266°
2026-05-08 17:59 37.57500 15.19367 16200 ft 253 kts 266°
2026-05-08 18:00 37.57469 15.17184 15951 ft 250 kts 266°
2026-05-08 18:00 37.57326 15.12803 15444 ft 251 kts 263°
2026-05-08 18:00 37.57148 15.10619 15189 ft 249 kts 262°
2026-05-08 18:01 37.56952 15.08458 14946 ft 248 kts 262°
2026-05-08 18:01 37.56753 15.06304 14673 ft 247 kts 262°
2026-05-08 18:01 37.56559 15.04159 14318 ft 246 kts 262°
2026-05-08 18:01 37.56370 15.02013 13943 ft 246 kts 262°
2026-05-08 18:02 37.56183 14.99864 13554 ft 247 kts 262°
2026-05-08 18:02 37.56060 14.98437 13296 ft 248 kts 262°
2026-05-08 18:02 37.55817 14.95582 12862 ft 246 kts 262°
2026-05-08 18:02 37.55634 14.93398 12500 ft 246 kts 262°
2026-05-08 18:03 37.55452 14.91247 12144 ft 245 kts 262°
2026-05-08 18:03 37.55268 14.89090 11748 ft 245 kts 262°
2026-05-08 18:03 37.55088 14.87010 11320 ft 241 kts 263°
2026-05-08 18:03 37.54908 14.84933 10894 ft 235 kts 263°
2026-05-08 18:04 37.54728 14.82880 10521 ft 236 kts 262°
2026-05-08 18:04 37.54549 14.80830 10144 ft 237 kts 263°
2026-05-08 18:04 37.54370 14.78762 9835 ft 234 kts 262°
2026-05-08 18:04 37.54201 14.76780 9776 ft 222 kts 263°
2026-05-08 18:05 37.54038 14.74879 9686 ft 213 kts 262°
2026-05-08 18:05 37.53877 14.73019 9359 ft 214 kts 262°
2026-05-08 18:05 37.53713 14.71159 9048 ft 213 kts 262°
2026-05-08 18:05 37.53553 14.69326 8743 ft 209 kts 262°
2026-05-08 18:06 37.53395 14.67516 8443 ft 206 kts 262°
2026-05-08 18:06 37.53239 14.65729 8146 ft 204 kts 263°
2026-05-08 18:06 37.53084 14.63954 7922 ft 203 kts 262°
2026-05-08 18:06 37.52925 14.62139 7837 ft 206 kts 262°
2026-05-08 18:07 37.52767 14.60358 7755 ft 205 kts 262°
2026-05-08 18:07 37.52608 14.58568 7661 ft 206 kts 262°
2026-05-08 18:07 37.52452 14.56783 7559 ft 205 kts 262°
2026-05-08 18:07 37.52296 14.55006 7460 ft 207 kts 262°
2026-05-08 18:08 37.52136 14.53202 7357 ft 206 kts 262°
2026-05-08 18:08 37.51978 14.51415 7248 ft 206 kts 262°
2026-05-08 18:08 37.51819 14.49601 7125 ft 206 kts 262°
2026-05-08 18:08 37.51661 14.47834 7018 ft 206 kts 262°
2026-05-08 18:09 37.51406 14.46063 6912 ft 204 kts 245°
2026-05-08 18:09 37.50510 14.44730 6809 ft 197 kts 215°
2026-05-08 18:09 37.49199 14.44286 6699 ft 204 kts 182°
2026-05-08 18:09 37.47784 14.44531 6587 ft 206 kts 179°
2026-05-08 18:10 37.46370 14.44745 6469 ft 205 kts 180°
2026-05-08 18:10 37.44958 14.44935 6368 ft 204 kts 180°
2026-05-08 18:10 37.43542 14.45140 6258 ft 205 kts 175°
2026-05-08 18:10 37.42257 14.45994 6139 ft 220 kts 139°
2026-05-08 18:11 37.41598 14.47782 6027 ft 232 kts 96°
2026-05-08 18:11 37.41704 14.49799 5909 ft 235 kts 85°
2026-05-08 18:11 37.41893 14.51829 5780 ft 233 kts 84°
2026-05-08 18:11 37.42084 14.53853 5663 ft 232 kts 85°
2026-05-08 18:12 37.42275 14.55877 5548 ft 232 kts 85°
2026-05-08 18:12 37.42462 14.57893 5430 ft 232 kts 85°
2026-05-08 18:12 37.42645 14.59903 5313 ft 231 kts 85°
2026-05-08 18:12 37.42823 14.61909 5210 ft 229 kts 85°
2026-05-08 18:13 37.42994 14.63896 5099 ft 228 kts 85°
2026-05-08 18:13 37.43167 14.65878 4987 ft 227 kts 85°
2026-05-08 18:13 37.43340 14.67851 4816 ft 226 kts 85°
2026-05-08 18:13 37.43511 14.69797 4604 ft 225 kts 85°
2026-05-08 18:14 37.43681 14.71749 4407 ft 224 kts 85°
2026-05-08 18:14 37.43851 14.73688 4214 ft 222 kts 86°
2026-05-08 18:14 37.44015 14.75562 4038 ft 208 kts 86°
2026-05-08 18:14 37.44168 14.77310 3843 ft 190 kts 86°
2026-05-08 18:15 37.44304 14.78878 3678 ft 175 kts 86°
2026-05-08 18:15 37.44431 14.80352 3529 ft 166 kts 86°
2026-05-08 18:15 37.44556 14.81798 3395 ft 166 kts 86°
2026-05-08 18:15 37.44680 14.83243 3256 ft 165 kts 87°
2026-05-08 18:16 37.44805 14.84689 3184 ft 164 kts 87°
2026-05-08 18:16 37.44928 14.86121 3015 ft 164 kts 87°
2026-05-08 18:16 37.45049 14.87525 2820 ft 162 kts 87°
2026-05-08 18:16 37.45171 14.88936 2627 ft 161 kts 87°
2026-05-08 18:17 37.45288 14.90297 2410 ft 151 kts 87°
2026-05-08 18:17 37.45399 14.91590 2207 ft 147 kts 86°
2026-05-08 18:17 37.45507 14.92852 2015 ft 144 kts 88°
2026-05-08 18:17 37.45613 14.94095 1826 ft 141 kts 88°
2026-05-08 18:18 37.45717 14.95311 1641 ft 138 kts 88°
2026-05-08 18:18 37.45818 14.96492 1460 ft 135 kts 88°
2026-05-08 18:18 37.45917 14.97660 1289 ft 133 kts 87°
2026-05-08 18:18 37.46015 14.98810 1109 ft 132 kts 86°
2026-05-08 18:19 37.46115 14.99958 930 ft 131 kts 85°
2026-05-08 18:19 37.46194 15.01090 728 ft 131 kts 84°
2026-05-08 18:19 37.46298 15.02230 564 ft 131 kts 83°
2026-05-08 18:19 37.46402 15.03363 404 ft 131 kts 83°
2026-05-08 18:20 37.46499 15.04510 225 ft 130 kts 84°
2026-05-08 18:20 37.46593 15.05642 44 ft 130 kts 84°
2026-05-08 18:20 37.46679 15.06640 23 ft 94 kts 85°
2026-05-08 18:20 37.46719 15.07139 22 ft 39 kts 84°
2026-05-08 18:21 37.46746 15.07450 23 ft 31 kts 82°
2026-05-08 18:21 37.46788 15.07644 25 ft 19 kts 59°
2026-05-08 18:21 37.46840 15.07745 23 ft 8 kts 54°
2026-05-08 18:21 37.46858 15.07776 23 ft 2 kts 54°
2026-05-08 18:22 37.46870 15.07794 23 ft 2 kts 44°
2026-05-08 18:22 37.46877 15.07800 22 ft 0 kts 35°
2026-05-08 18:22 37.46883 15.07806 22 ft 0 kts 34°
2026-05-08 18:22 37.46886 15.07806 22 ft 2 kts 18°
2026-05-08 18:23 37.46905 15.07804 22 ft 3 kts 347°
2026-05-08 18:23 37.46919 15.07794 30 ft 6 kts 324°
2026-05-08 18:23 37.46934 15.07739 22 ft 9 kts 271°
2026-05-08 18:23 37.46929 15.07660 22 ft 8 kts 264°
2026-05-08 18:24 37.46923 15.07579 24 ft 10 kts 263°
2026-05-08 18:24 37.46916 15.07504 22 ft 7 kts 264°
2026-05-08 18:24 37.46914 15.07473 22 ft 0 kts 264°
2026-05-08 18:24 37.46914 15.07472 22 ft 3 kts 264°
2026-05-08 18:25 37.46897 15.07266 22 ft 17 kts 264°
2026-05-08 18:25 37.46889 15.07173 22 ft 17 kts 264°
2026-05-08 18:25 37.46877 15.07022 22 ft 12 kts 263°
2026-05-08 18:25 37.46867 15.06910 22 ft 14 kts 264°
2026-05-08 18:26 37.46856 15.06779 22 ft 16 kts 264°
2026-05-08 18:26 37.46843 15.06628 22 ft 18 kts 264°
2026-05-08 18:26 37.46834 15.06516 22 ft 7 kts 265°
2026-05-08 18:26 37.46861 15.06496 22 ft 6 kts
2026-05-08 18:27 37.46906 15.06510 22 ft 8 kts 18°
2026-05-08 18:27 37.46934 15.06522 22 ft 6 kts 18°
2026-05-08 18:27 37.46945 15.06526 22 ft 0 kts 18°